SCP
0 0 0 0 0 0 0 0 0 0 0 0 0 0 0 0 0 0 0 0 0 0 0 0 0 0 0 0 0 0 0 0 0 0 0 0 0 0 0 0 0 0 0
0 0 0 0 0 0 0 0 0 0 0 0 0 0 0 0 0 0 0 0 0 0 0 0 0 0 0 0 0 0 0 0 0 0 0 0 0 0 0 0 0 0 0
0 0 0 0 0 0 0 0 0 0 0 0 0 0 0 0 0 0 0 0 0 0 0 0 0 0 0 0 0 0 0 0 0 0 0 0 0 0 0 0 0 0 0
0 0 0 0 0 0 0 0 0 0 0 0 0 0 0 0 0 0 0 0 0 0 0 0 0 0 0 0 0 0 0 0 0 0 0 0 0 0 0 0 0 0 0
0 0 0 0 0 0 0 0 0 0 0 0 0 0 0 0 0 0 0 0 0 0 0 0 0 0 0 0 0 0 0 0 0 0 0 0 0 0 0 0 0 0 0
0 0 0 0 0 0 0 0 0 0 0 0 0 0 0 0 0 0 0 0 0 0 0 0 0 0 0 0 0 0 0 0 0 0 0 0 0 0 0 0 0 0 0
1 0 0 1 1 0 0 0 0 0 0 0 0 0 0 0 0 0 0 0 0 0 0 0 0 0 0 0 0 0 0 0 0 0 0 0 0 0 0 0 0 0 0
1 0 1 1 1 1 0 0 0 0 0 0 0 0 0 0 0 0 0 0 0 0 0 0 0 0 0 0 0 0 0 0 0 0 0 0 0 0 0 0 0 0 0
1 1 1 1 1 1 0 0 0 0 0 0 0 0 0 0 0 0 0 0 0 0 0 0 0 0 0 0 0 0 0 0 0 0 0 0 0 0 0 0 0 0 0
1 1 1 1 1 1 0 0 0 0 0 0 0 0 0 0 0 0 0 0 0 0 0 0 0 0 0 0 0 0 0 0 0 0 0 0 0 0 0 0 0 0 0
1 1 1 1 1 1 1 0 0 0 0 0 0 0 0 0 0 0 0 0 0 0 0 0 0 0 0 0 0 0 0 0 0 0 0 0 0 0 0 0 0 0 0
1 1 1 1 1 1 1 1 0 0 0 0 0 0 0 0 0 0 0 0 0 0 0 0 0 0 0 0 0 0 0 0 0 0 0 0 0 0 0 0 0 0 0
1 1 1 1 1 1 1 1 1 0 0 0 0 0 0 0 0 0 0 0 0 0 0 0 0 0 0 0 0 0 0 0 0 0 0 0 0 0 0 0 0 0 0
1 1 1 1 1 1 1 1 1 1 1 0 0 0 0 0 0 0 0 0 0 0 0 0 0 0 0 0 0 0 0 0 0 0 0 0 0 0 0 0 0 0 0
1 1 1 1 1 1 1 1 1 1 1 1 0 0 0 0 0 0 0 0 0 0 0 0 0 0 0 0 0 0 0 0 0 0 0 0 0 0 0 0 0 0 0
1 1 1 1 1 1 1 1 1 1 1 1 1 0 0 0 0 0 0 0 0 0 0 0 0 0 0 0 0 0 0 0 0 0 0 0 0 0 0 0 0 0 0
1 1 1 1 1 1 1 1 1 1 1 1 1 1 1 0 0 0 0 0 0 0 0 0 0 0 0 0 0 0 0 0 0 0 0 0 0 0 0 0 0 0 0
1 1 0 0 0 1 1 1 1 1 1 1 1 1 1 1 0 0 0 0 0 0 0 0 0 0 0 0 0 0 0 0 0 0 0 0 0 0 0 0 0 0 0
0 0 0 0 0 0 0 1 1 1 1 1 1 1 1 1 1 1 0 0 0 0 0 0 0 0 0 0 0 0 0 0 0 0 0 0 0 0 0 0 0 0 0
0 0 0 0 0 0 0 0 0 1 1 1 1 1 1 1 1 0 0 0 0 0 0 0 0 0 0 0 0 0 0 0 0 0 0 0 0 0 0 0 0 0 0
0 0 0 0 0 0 0 0 0 0 1 1 1 1 1 0 0 0 0 0 0 1 1 0 0 0 0 0 0 0 0 0 0 0 0 0 0 0 0 0 0 0 0
0 0 0 0 0 0 0 0 0 0 0 0 1 1 0 0 0 0 0 0 0 0 0 0 0 0 0 0 0 0 0 0 0 0 0 0 0 0 0 0 0 0 0
0 0 0 0 0 0 0 0 0 0 0 0 0 1 0 0 0 0 0 0 0 0 0 0 0 0 0 1 1 1 0 0 0 0 0 0 0 0 0 0 0 0 0
0 0 0 0 0 0 0 0 0 0 0 0 0 0 0 0 0 0 0 0 0 0 0 0 0 0 0 0 1 1 0 0 0 0 0 0 0 0 0 0 0 0 0
0 0 0 0 0 0 0 0 0 0 0 0 0 0 0 0 0 0 0 0 0 0 0 0 0 0 0 0 0 0 0 0 0 0 0 0 0 0 0 0 0 0 0
0 0 0 0 0 0 0 0 0 0 0 0 0 0 0 0 0 0 0 0 0 0 0 0 0 0 0 0 0 0 0 0 0 0 0 0 0 0 0 0 0 0 0
Wind_Speed
2 2 2 2 2 2 2 2 3 4 3 2 2 3 4 5 6 6 6 12 11 10 9 9 8 7 7 7 6 6 6 6 6 6 6 6 6 6 6 6 6 6 6
2 2 2 2 2 2 2 2 3 3 2 2 3 3 4 4 5 6 6 8 10 10 9 8 7 7 6 6 6 5 6 6 6 6 6 5 6 6 5 5 5 5 5
2 2 1 2 2 2 1 2 2 2 2 2 2 2 3 3 4 5 5 5 6 8 9 8 7 6 6 5 5 5 6 6 5 6 5 5 5 6 5 5 6 6 5
2 2 2 2 1 1 1 1 1 1 2 2 2 2 2 2 4 4 4 4 4 5 7 8 7 6 6 6 5 5 5 5 6 6 6 6 5 5 5 5 5 6 6
1 1 1 1 1 1 1 1 2 1 1 2 2 2 2 2 3 3 3 4 4 4 4 7 8 6 5 6 6 5 5 5 5 6 6 6 6 5 5 5 5 6 6
1 1 1 1 1 2 2 2 2 1 1 1 1 2 1 2 2 2 2 3 4 5 5 5 5 4 5 5 5 6 5 5 5 5 6 6 6 5 5 5 5 5 6
1 1 1 1 1 1 1 2 1 1 1 1 1 1 1 2 2 2 2 2 3 4 5 5 4 3 3 5 4 5 5 5 4 5 5 5 5 5 6 6 6 6 7
0 1 1 1 1 1 1 1 1 1 1 1 1 1 1 1 0 1 2 2 2 3 4 5 4 4 3 3 3 5 5 4 3 4 5 5 4 4 5 5 6 6 7
1 1 1 1 1 1 1 1 0 1 0 1 1 0 1 1 1 0 1 2 3 2 2 3 4 4 4 4 4 5 6 4 4 3 3 4 3 3 3 4 5 6 7
1 1 1 1 1 1 0 0 1 0 1 0 0 0 0 1 1 1 0 1 2 2 2 2 3 3 4 4 4 7 7 6 4 4 3 2 2 3 3 3 4 5 6
0 1 1 1 1 1 1 0 1 0 0 0 1 0 0 0 0 1 1 1 1 1 2 2 2 3 4 4 4 6 8 7 5 4 3 2 2 2 3 4 4 4 5
1 1 1 1 1 1 1 1 1 1 0 0 1 1 0 0 0 0 1 2 1 1 2 2 2 2 3 4 5 8 8 8 6 5 4 3 2 2 2 3 4 4 4
1 0 1 1 1 1 1 1 1 1 1 1 1 1 1 0 1 1 1 1 1 1 2 2 2 2 3 4 4 8 8 9 8 6 5 4 3 3 2 2 2 3 3
1 1 1 1 1 1 1 1 1 2 1 2 2 1 1 1 1 1 1 1 1 1 1 2 2 3 2 4 6 9 6 9 8 7 6 6 5 4 3 3 2 2 3
1 1 0 1 1 1 1 2 2 2 1 2 2 2 1 1 1 1 1 1 1 1 1 1 1 2 2 3 6 5 5 8 9 9 8 7 6 5 5 4 4 4 4
1 1 1 1 1 1 1 2 2 2 2 2 2 2 1 1 2 1 1 1 1 1 1 1 1 1 1 2 5 4 4 8 9 10 9 9 8 7 6 5 5 5 5
0 1 1 1 1 2 2 2 2 2 2 2 2 2 2 2 1 2 1 1 1 1 2 1 1 1 1 1 1 2 4 4 5 9 10 10 9 8 7 6 6 6 5
1 1 2 2 2 2 2 2 2 2 2 2 2 2 2 2 2 2 2 2 2 2 2 2 1 1 2 1 2 3 3 4 3 8 10 10 9 9 8 7 6 6 6
2 2 2 2 2 2 2 2 2 2 2 2 2 2 2 2 2 2 2 2 2 2 1 2 2 1 1 2 2 3 3 2 3 5 8 9 9 9 9 9 8 7 7
2 2 2 3 2 2 1 2 2 2 2 2 1 2 2 2 2 2 2 2 2 2 2 2 2 2 2 2 1 2 2 2 2 3 4 5 7 9 9 9 9 8 8
2 2 2 2 2 2 1 2 2 2 2 2 2 2 2 1 1 2 2 1 2 2 2 2 2 2 1 1 1 2 2 2 2 2 2 3 4 4 5 7 8 9 9
2 2 2 2 2 2 0 1 1 2 2 2 2 2 2 2 3 3 3 2 2 3 3 2 2 2 2 1 1 2 1 1 2 1 1 3 3 4 4 4 8 11 11
2 2 2 2 2 1 1 1 1 2 2 2 2 2 3 2 2 2 3 4 3 4 4 3 3 3 3 2 2 2 2 2 2 2 1 3 3 3 3 4 9 12 12
2 2 2 3 2 2 3 2 3 3 3 3 3 3 3 2 3 2 2 2 3 3 4 4 4 4 3 2 2 3 3 3 3 3 2 3 3 3 2 2 7 10 12
2 2 2 2 2 2 3 3 3 3 2 3 4 3 3 3 3 3 3 3 3 3 4 3 3 3 3 3 2 2 3 2 3 3 2 2 2 2 2 3 4 9 11
3 3 2 2 2 2 3 4 4 3 2 3 2 2 4 4 3 4 4 3 4 4 3 3 3 4 5 5 5 4 3 3 3 3 2 2 2 2 2 2 2 3 5
Wind_Direction
21 35 30 26 34 40 76 87 93 91 86 81 100 93 88 91 104 113 129 139 140 139 137 136 133 134 140 145 150 154 156 161 161 159 157 159 161 164 168 169 173 174 173
34 27 41 29 32 33 42 74 94 102 103 95 76 78 85 94 104 119 131 140 144 144 142 140 139 141 145 152 158 163 161 160 156 153 155 157 161 161 164 165 165 163 168
28 16 42 50 33 43 41 62 85 114 124 112 98 89 89 96 107 116 131 141 149 148 148 148 149 152 156 158 161 163 164 161 159 160 161 161 162 163 167 170 174 173 174
36 7 18 42 12 37 65 95 93 97 104 104 101 89 93 103 112 119 127 136 144 149 155 158 158 162 168 172 171 167 165 165 169 170 170 171 170 170 174 177 180 185 185
94 34 18 26 351 42 47 34 73 89 97 107 125 120 112 116 121 125 131 134 134 136 145 157 161 165 172 177 174 169 165 163 169 172 176 178 180 182 183 187 187 189 192
94 63 75 43 24 46 43 44 58 54 79 90 92 87 90 113 111 110 126 129 136 144 145 147 158 164 158 161 170 174 171 170 168 173 179 185 186 188 189 190 189 193 200
80 75 49 88 74 66 57 55 59 72 86 117 109 92 95 122 121 128 131 132 147 151 146 148 155 155 162 161 156 167 169 176 179 183 182 182 186 192 198 204 203 208 214
168 158 108 75 87 75 67 59 62 33 66 79 126 136 141 95 64 159 148 151 146 141 144 153 151 148 154 152 151 157 161 165 174 182 187 187 189 196 207 216 215 220 218
153 51 120 102 94 87 86 94 327 102 101 350 47 125 143 143 130 117 168 139 136 134 138 137 149 154 155 143 151 163 158 157 164 173 179 181 189 206 219 228 227 225 221
108 129 108 100 77 90 102 197 116 117 125 248 311 27 141 138 150 164 237 130 141 143 152 159 149 146 144 143 143 146 157 161 166 174 180 180 198 220 231 234 240 228 217
111 114 111 114 125 124 144 232 108 94 117 228 285 354 325 248 217 160 166 165 166 161 160 153 148 155 150 147 150 153 159 163 167 170 170 180 199 221 233 236 235 227 217
168 137 128 144 174 181 187 205 200 181 180 289 334 346 279 299 266 200 165 173 170 184 172 167 162 174 164 154 165 158 164 171 177 184 185 193 212 221 229 231 233 228 220
129 129 138 150 199 188 201 208 200 200 207 230 235 261 287 285 276 279 160 185 184 197 188 178 169 186 176 154 161 162 173 179 185 193 198 202 211 217 222 224 230 224 205
122 126 148 185 234 210 207 197 213 207 201 220 242 245 264 262 238 248 193 175 206 213 193 191 174 180 184 158 161 170 180 187 191 197 204 211 216 218 217 218 224 216 204
91 81 151 207 230 235 231 208 211 215 205 212 225 225 241 264 267 254 229 191 186 224 234 217 179 175 169 147 162 181 183 192 197 202 205 208 212 215 217 217 217 221 216
32 4 1 286 249 245 234 223 222 198 213 225 231 224 226 248 268 279 262 232 194 202 233 227 204 146 145 167 173 184 187 187 200 203 203 203 205 209 211 213 217 220 221
176 242 265 276 256 243 238 224 243 224 217 226 240 228 225 235 263 283 287 275 246 217 225 245 235 150 159 145 168 205 194 186 197 203 204 202 204 205 205 208 212 217 223
239 244 245 252 256 244 236 232 237 245 237 227 232 233 243 245 243 268 279 274 264 235 208 233 236 208 211 181 195 233 215 205 195 199 201 201 202 204 204 206 209 215 221
248 251 251 254 257 256 243 230 225 237 239 233 227 227 242 248 247 247 265 271 268 268 227 223 237 219 210 201 203 241 238 224 219 197 191 198 201 204 208 209 211 216 222
239 249 255 253 252 256 246 241 232 236 238 241 236 233 241 243 242 251 253 262 264 280 265 252 239 220 221 205 197 228 243 237 240 225 194 196 200 206 211 212 215 217 221
238 243 250 258 256 247 249 264 250 235 235 241 243 241 237 219 218 245 260 278 270 263 264 260 252 245 237 214 231 239 234 235 250 227 192 206 201 206 209 218 220 221 220
244 249 246 253 259 263 226 100 306 279 257 249 246 233 226 210 205 209 224 243 244 250 256 259 268 257 255 254 266 270 266 255 266 254 215 238 209 208 208 204 207 210 213
236 248 245 240 242 239 185 197 236 262 259 256 256 248 251 241 218 221 224 226 239 247 238 245 256 267 267 261 261 275 277 272 264 261 236 253 237 221 215 213 199 202 206
239 239 239 239 236 221 200 213 247 241 247 251 254 242 242 252 259 238 240 250 256 260 241 229 242 255 267 271 245 248 247 252 261 261 231 245 257 243 227 213 204 201 204
247 242 234 230 230 210 201 211 228 238 233 246 250 242 228 229 233 214 217 235 251 260 264 243 234 252 262 275 270 273 263 251 263 261 242 238 266 262 238 224 212 203 205
241 244 236 233 220 198 195 207 225 248 240 248 245 231 232 231 221 211 214 229 245 250 257 252 246 247 245 244 236 233 245 249 262 265 244 232 252 269 275 248 216 198 211